Time,TemperatureF,DewpointF,PressureIn,WindDirection,WindDirectionDegrees,WindSpeedMPH,WindSpeedGustMPH,Humidity,HourlyPrecipIn,Conditions,Clouds,dailyrainin,SoftwareType,DateUTC
2013-01-15 00:03:00,19.0,17.0,-100.00,WNW,300,2.0,2.0,92,0.00,,,-99.99,,2013-01-15 05:03:00,
2013-01-15 00:12:00,19.0,18.0,-100.00,West,275,1.0,2.0,92,0.00,,,-99.99,,2013-01-15 05:12:00,
2013-01-15 00:22:00,20.0,18.0,-100.00,WNW,290,1.0,1.0,92,0.00,,,-99.99,,2013-01-15 05:22:00,
2013-01-15 00:33:00,19.0,18.0,-100.00,WNW,290,1.0,2.0,93,0.00,,,-99.99,,2013-01-15 05:33:00,
2013-01-15 00:42:00,19.0,18.0,-100.00,WNW,295,1.0,2.0,93,0.00,,,-99.99,,2013-01-15 05:42:00,
2013-01-15 00:52:00,19.0,18.0,-100.00,NW,305,2.0,2.0,94,0.00,,,-99.99,,2013-01-15 05:52:00,
2013-01-15 01:02:00,19.0,18.0,-100.00,NW,310,2.0,2.0,94,0.00,,,-99.99,,2013-01-15 06:02:00,
2013-01-15 01:12:00,18.0,17.0,-100.00,NW,310,2.0,2.0,94,0.00,,,-99.99,,2013-01-15 06:12:00,
2013-01-15 01:22:00,19.0,17.0,-100.00,NW,310,2.0,2.0,94,0.00,,,-99.99,,2013-01-15 06:22:00,
2013-01-15 01:33:00,19.0,17.0,-100.00,NW,310,2.0,3.0,94,0.00,,,-99.99,,2013-01-15 06:33:00,
2013-01-15 01:43:00,19.0,18.0,-100.00,NW,310,3.0,4.0,94,0.00,,,-99.99,,2013-01-15 06:43:00,
2013-01-15 01:52:00,19.0,18.0,-100.00,NW,310,3.0,4.0,95,0.00,,,-99.99,,2013-01-15 06:52:00,
2013-01-15 02:02:00,19.0,18.0,-100.00,NW,325,3.0,4.0,95,0.00,,,-99.99,,2013-01-15 07:02:00,
2013-01-15 02:12:00,19.0,18.0,-100.00,NW,315,2.0,4.0,95,0.00,,,-99.99,,2013-01-15 07:12:00,
2013-01-15 02:22:00,19.0,18.0,-100.00,WNW,300,2.0,3.0,95,0.00,,,-99.99,,2013-01-15 07:22:00,
2013-01-15 02:33:00,19.0,18.0,-100.00,WNW,300,2.0,2.0,96,0.00,,,-99.99,,2013-01-15 07:33:00,
2013-01-15 02:42:00,19.0,18.0,-100.00,NW,315,3.0,4.0,96,0.00,,,-99.99,,2013-01-15 07:42:00,
2013-01-15 02:52:00,19.0,18.0,-100.00,NW,320,3.0,4.0,96,0.00,,,-99.99,,2013-01-15 07:52:00,
2013-01-15 03:02:00,19.0,18.0,-100.00,NW,315,2.0,6.0,96,0.00,,,-99.99,,2013-01-15 08:02:00,
2013-01-15 03:12:00,19.0,18.0,-100.00,NW,315,3.0,4.0,96,0.00,,,-99.99,,2013-01-15 08:12:00,
2013-01-15 03:22:00,19.0,18.0,-100.00,NW,325,2.0,4.0,96,0.00,,,-99.99,,2013-01-15 08:22:00,
2013-01-15 03:33:00,19.0,18.0,-100.00,NW,325,1.0,4.0,96,0.00,,,-99.99,,2013-01-15 08:33:00,
2013-01-15 03:42:00,18.0,17.0,-100.00,NW,320,1.0,2.0,96,0.00,,,-99.99,,2013-01-15 08:42:00,
2013-01-15 03:52:00,18.0,17.0,-100.00,NNW,330,2.0,3.0,96,0.00,,,-99.99,,2013-01-15 08:52:00,
2013-01-15 04:02:00,18.0,17.0,-100.00,NW,325,2.0,4.0,96,0.00,,,-99.99,,2013-01-15 09:02:00,
2013-01-15 04:12:00,18.0,17.0,-100.00,NW,325,2.0,3.0,96,0.00,,,-99.99,,2013-01-15 09:12:00,
2013-01-15 04:22:00,18.0,17.0,-100.00,NW,315,1.0,3.0,96,0.00,,,-99.99,,2013-01-15 09:22:00,
2013-01-15 04:33:00,18.0,17.0,-100.00,NW,320,2.0,4.0,96,0.00,,,-99.99,,2013-01-15 09:33:00,
2013-01-15 04:42:00,17.0,17.0,-100.00,NNW,335,1.0,3.0,96,0.00,,,-99.99,,2013-01-15 09:42:00,
2013-01-15 04:52:00,18.0,17.0,-100.00,NNW,345,2.0,2.0,96,0.00,,,-99.99,,2013-01-15 09:52:00,
2013-01-15 05:02:00,18.0,17.0,-100.00,NNW,330,2.0,4.0,96,0.00,,,-99.99,,2013-01-15 10:02:00,
2013-01-15 05:12:00,17.0,17.0,-100.00,NNW,335,2.0,3.0,96,0.00,,,-99.99,,2013-01-15 10:12:00,
2013-01-15 05:22:00,18.0,17.0,-100.00,NNW,340,2.0,4.0,96,0.00,,,-99.99,,2013-01-15 10:22:00,
2013-01-15 05:32:00,18.0,17.0,-100.00,North,350,2.0,4.0,96,0.00,,,-99.99,,2013-01-15 10:32:00,
2013-01-15 05:42:00,18.0,17.0,-100.00,NNW,340,2.0,4.0,96,0.00,,,-99.99,,2013-01-15 10:42:00,
2013-01-15 05:52:00,18.0,17.0,-100.00,NNW,340,2.0,5.0,96,0.00,,,-99.99,,2013-01-15 10:52:00,
2013-01-15 06:02:00,18.0,17.0,-100.00,NNW,335,1.0,3.0,96,0.00,,,-99.99,,2013-01-15 11:02:00,
2013-01-15 06:12:00,17.0,16.0,-100.00,NNW,330,0.0,1.0,96,0.00,,,-99.99,,2013-01-15 11:12:00,
2013-01-15 06:22:00,17.0,16.0,-100.00,West,270,0.0,1.0,96,0.00,,,-99.99,,2013-01-15 11:22:00,
2013-01-15 06:33:00,16.0,15.0,-100.00,WSW,245,1.0,1.0,96,0.00,,,-99.99,,2013-01-15 11:33:00,
2013-01-15 06:42:00,16.0,15.0,-100.00,WSW,255,0.0,1.0,96,0.00,,,-99.99,,2013-01-15 11:42:00,
2013-01-15 06:52:00,16.0,15.0,-100.00,WNW,290,1.0,1.0,96,0.00,,,-99.99,,2013-01-15 11:52:00,
2013-01-15 07:03:00,16.0,15.0,-100.00,South,180,1.0,1.0,96,0.00,,,-99.99,,2013-01-15 12:03:00,
2013-01-15 07:12:00,17.0,17.0,-100.00,South,180,0.0,1.0,96,0.00,,,-99.99,,2013-01-15 12:12:00,
2013-01-15 07:22:00,17.0,17.0,-100.00,SSE,150,1.0,1.0,96,0.00,,,-99.99,,2013-01-15 12:22:00,
2013-01-15 07:33:00,17.0,16.0,-100.00,SSE,160,1.0,1.0,96,0.00,,,-99.99,,2013-01-15 12:33:00,
2013-01-15 07:43:00,17.0,16.0,-100.00,SE,125,1.0,2.0,96,0.00,,,-99.99,,2013-01-15 12:43:00,
2013-01-15 07:53:00,17.0,17.0,-100.00,SE,125,2.0,2.0,96,0.00,,,-99.99,,2013-01-15 12:53:00,
2013-01-15 08:03:00,17.0,17.0,-100.00,ESE,110,1.0,2.0,96,0.00,,,-99.99,,2013-01-15 13:03:00,
2013-01-15 08:12:00,17.0,16.0,-100.00,West,280,0.0,1.0,96,0.00,,,-99.99,,2013-01-15 13:12:00,
2013-01-15 08:23:00,16.0,15.0,-100.00,WNW,300,0.0,1.0,96,0.00,,,-99.99,,2013-01-15 13:23:00,
2013-01-15 08:33:00,16.0,15.0,-100.00,WNW,300,1.0,1.0,96,0.00,,,-99.99,,2013-01-15 13:33:00,
2013-01-15 08:43:00,16.0,16.0,-100.00,WNW,300,0.0,1.0,96,0.00,,,-99.99,,2013-01-15 13:43:00,
2013-01-15 08:53:00,18.0,17.0,-100.00,WNW,300,0.0,1.0,96,0.00,,,-99.99,,2013-01-15 13:53:00,
2013-01-15 09:03:00,19.0,18.0,-100.00,West,270,0.0,1.0,96,0.00,,,-99.99,,2013-01-15 14:03:00,
2013-01-15 09:12:00,20.0,19.0,-100.00,NNW,335,1.0,1.0,96,0.00,,,-99.99,,2013-01-15 14:12:00,
2013-01-15 09:23:00,20.0,19.0,-100.00,NNE,20,1.0,2.0,96,0.00,,,-99.99,,2013-01-15 14:23:00,
2013-01-15 09:33:00,20.0,20.0,-100.00,NNW,330,0.0,1.0,96,0.00,,,-99.99,,2013-01-15 14:33:00,
2013-01-15 09:43:00,21.0,20.0,-100.00,NE,35,2.0,4.0,96,0.00,,,-99.99,,2013-01-15 14:43:00,
2013-01-15 09:53:00,21.0,20.0,-100.00,NNE,30,2.0,4.0,96,0.00,,,-99.99,,2013-01-15 14:53:00,
2013-01-15 10:03:00,21.0,21.0,-100.00,NE,50,3.0,4.0,96,0.00,,,-99.99,,2013-01-15 15:03:00,
2013-01-15 10:12:00,22.0,22.0,-100.00,ENE,65,3.0,4.0,96,0.00,,,-99.99,,2013-01-15 15:12:00,
2013-01-15 10:23:00,23.0,22.0,-100.00,East,80,4.0,6.0,96,0.00,,,-99.99,,2013-01-15 15:23:00,
2013-01-15 10:33:00,24.0,23.0,-100.00,East,90,4.0,6.0,96,0.00,,,-99.99,,2013-01-15 15:33:00,
2013-01-15 10:43:00,25.0,23.0,-100.00,East,90,6.0,7.0,94,0.00,,,-99.99,,2013-01-15 15:43:00,
2013-01-15 10:53:00,25.0,22.0,-100.00,East,90,7.0,9.0,90,0.00,,,-99.99,,2013-01-15 15:53:00,
2013-01-15 11:03:00,25.0,22.0,-100.00,East,90,6.0,8.0,86,0.00,,,-99.99,,2013-01-15 16:03:00,
2013-01-15 11:12:00,26.0,22.0,-100.00,ENE,60,6.0,8.0,84,0.00,,,-99.99,,2013-01-15 16:12:00,
2013-01-15 11:23:00,26.0,21.0,-100.00,East,80,6.0,9.0,81,0.00,,,-99.99,,2013-01-15 16:23:00,
2013-01-15 11:33:00,27.0,21.0,-100.00,ESE,105,7.0,9.0,79,0.00,,,-99.99,,2013-01-15 16:33:00,
2013-01-15 11:43:00,28.0,22.0,-100.00,ESE,105,6.0,8.0,78,0.00,,,-99.99,,2013-01-15 16:43:00,
2013-01-15 11:53:00,28.0,21.0,-100.00,East,80,7.0,10.0,76,0.00,,,-99.99,,2013-01-15 16:53:00,
2013-01-15 12:03:00,28.0,21.0,-100.00,ENE,65,5.0,9.0,75,0.00,,,-99.99,,2013-01-15 17:03:00,
2013-01-15 12:12:00,29.0,21.0,-100.00,ENE,75,6.0,9.0,72,0.00,,,-99.99,,2013-01-15 17:12:00,
2013-01-15 12:22:00,28.0,20.0,-100.00,East,80,7.0,10.0,71,0.00,,,-99.99,,2013-01-15 17:22:00,
2013-01-15 12:33:00,29.0,21.0,-100.00,East,85,8.0,10.0,70,0.00,,,-99.99,,2013-01-15 17:33:00,
2013-01-15 12:42:00,29.0,20.0,-100.00,East,100,5.0,9.0,69,0.00,,,-99.99,,2013-01-15 17:42:00,
2013-01-15 12:53:00,29.0,20.0,-100.00,East,85,6.0,9.0,69,0.00,,,-99.99,,2013-01-15 17:53:00,
2013-01-15 13:03:00,28.0,19.0,-100.00,ENE,65,10.0,13.0,70,0.00,,,-99.99,,2013-01-15 18:03:00,
2013-01-15 13:13:00,28.0,20.0,-100.00,ENE,75,10.0,14.0,71,0.00,,,-99.99,,2013-01-15 18:13:00,
2013-01-15 13:23:00,28.0,20.0,-100.00,East,95,5.0,11.0,70,0.00,,,-99.99,,2013-01-15 18:23:00,
2013-01-15 13:33:00,29.0,21.0,-100.00,NE,55,6.0,10.0,70,0.00,,,-99.99,,2013-01-15 18:33:00,
2013-01-15 13:43:00,28.0,20.0,-100.00,NNE,30,6.0,11.0,70,0.00,,,-99.99,,2013-01-15 18:43:00,
2013-01-15 13:53:00,30.0,21.0,-100.00,NE,40,6.0,7.0,70,0.00,,,-99.99,,2013-01-15 18:53:00,
2013-01-15 14:03:00,30.0,21.0,-100.00,ENE,65,6.0,9.0,68,0.00,,,-99.99,,2013-01-15 19:03:00,
2013-01-15 14:12:00,30.0,21.0,-100.00,ESE,105,6.0,9.0,67,0.00,,,-99.99,,2013-01-15 19:12:00,
2013-01-15 14:23:00,30.0,20.0,-100.00,East,85,4.0,9.0,66,0.00,,,-99.99,,2013-01-15 19:23:00,
2013-01-15 14:33:00,29.0,20.0,-100.00,ENE,65,7.0,9.0,67,0.00,,,-99.99,,2013-01-15 19:33:00,
2013-01-15 14:42:00,29.0,20.0,-100.00,East,90,6.0,10.0,68,0.00,,,-99.99,,2013-01-15 19:42:00,
2013-01-15 14:53:00,30.0,21.0,-100.00,East,95,7.0,9.0,68,0.00,,,-99.99,,2013-01-15 19:53:00,
2013-01-15 15:03:00,29.0,20.0,-100.00,ENE,75,6.0,9.0,68,0.00,,,-99.99,,2013-01-15 20:03:00,
2013-01-15 15:12:00,29.0,20.0,-100.00,East,80,4.0,7.0,69,0.00,,,-99.99,,2013-01-15 20:12:00,
2013-01-15 15:23:00,29.0,20.0,-100.00,East,85,4.0,7.0,69,0.00,,,-99.99,,2013-01-15 20:23:00,
2013-01-15 15:33:00,30.0,21.0,-100.00,ENE,70,4.0,7.0,69,0.00,,,-99.99,,2013-01-15 20:33:00,
2013-01-15 15:43:00,30.0,21.0,-100.00,ENE,70,4.0,5.0,69,0.00,,,-99.99,,2013-01-15 20:43:00,
2013-01-15 15:52:00,29.0,20.0,-100.00,SE,125,3.0,7.0,68,0.00,,,-99.99,,2013-01-15 20:52:00,
2013-01-15 16:03:00,29.0,20.0,-100.00,East,90,5.0,6.0,67,0.00,,,-99.99,,2013-01-15 21:03:00,
2013-01-15 16:13:00,29.0,20.0,-100.00,East,90,6.0,8.0,68,0.00,,,-99.99,,2013-01-15 21:13:00,
2013-01-15 16:23:00,29.0,20.0,-100.00,East,85,6.0,7.0,69,0.00,,,-99.99,,2013-01-15 21:23:00,
2013-01-15 16:33:00,29.0,20.0,-100.00,East,100,4.0,6.0,68,0.00,,,-99.99,,2013-01-15 21:33:00,
2013-01-15 16:43:00,29.0,21.0,-100.00,ESE,110,6.0,9.0,70,0.00,,,-99.99,,2013-01-15 21:43:00,
2013-01-15 16:52:00,29.0,21.0,-100.00,ESE,105,4.0,7.0,70,0.00,,,-99.99,,2013-01-15 21:52:00,
2013-01-15 17:03:00,29.0,21.0,-100.00,ESE,120,5.0,7.0,71,0.00,,,-99.99,,2013-01-15 22:03:00,
2013-01-15 17:12:00,29.0,21.0,-100.00,ESE,120,5.0,7.0,71,0.00,,,-99.99,,2013-01-15 22:12:00,
2013-01-15 17:23:00,29.0,20.0,-100.00,East,100,6.0,7.0,70,0.00,,,-99.99,,2013-01-15 22:23:00,
2013-01-15 17:33:00,29.0,20.0,-100.00,ESE,105,6.0,7.0,70,0.00,,,-99.99,,2013-01-15 22:33:00,
2013-01-15 17:43:00,29.0,20.0,-100.00,ESE,120,6.0,8.0,70,0.00,,,-99.99,,2013-01-15 22:43:00,
2013-01-15 17:53:00,28.0,20.0,-100.00,East,95,4.0,6.0,70,0.00,,,-99.99,,2013-01-15 22:53:00,
2013-01-15 18:03:00,28.0,20.0,-100.00,East,80,5.0,7.0,70,0.00,,,-99.99,,2013-01-15 23:03:00,
2013-01-15 18:13:00,28.0,20.0,-100.00,East,80,5.0,7.0,70,0.00,,,-99.99,,2013-01-15 23:13:00,
2013-01-15 18:22:00,28.0,20.0,-100.00,ENE,75,4.0,7.0,70,0.00,,,-99.99,,2013-01-15 23:22:00,
2013-01-15 18:33:00,28.0,20.0,-100.00,East,85,3.0,6.0,71,0.00,,,-99.99,,2013-01-15 23:33:00,
2013-01-15 18:43:00,28.0,20.0,-100.00,East,80,3.0,4.0,71,0.00,,,-99.99,,2013-01-15 23:43:00,
2013-01-15 18:53:00,28.0,20.0,-100.00,East,80,3.0,4.0,71,0.00,,,-99.99,,2013-01-15 23:53:00,
2013-01-15 19:03:00,28.0,20.0,-100.00,East,90,5.0,6.0,72,0.00,,,-99.99,,2013-01-16 00:03:00,
2013-01-15 19:12:00,28.0,20.0,-100.00,East,80,5.0,7.0,73,0.00,,,-99.99,,2013-01-16 00:12:00,
2013-01-15 19:22:00,28.0,20.0,-100.00,East,90,5.0,6.0,73,0.00,,,-99.99,,2013-01-16 00:22:00,
2013-01-15 19:33:00,28.0,21.0,-100.00,ENE,75,4.0,6.0,74,0.00,,,-99.99,,2013-01-16 00:33:00,
2013-01-15 19:43:00,28.0,21.0,-100.00,ENE,65,3.0,5.0,75,0.00,,,-99.99,,2013-01-16 00:43:00,
2013-01-15 19:52:00,28.0,21.0,-100.00,ENE,60,6.0,6.0,75,0.00,,,-99.99,,2013-01-16 00:52:00,
2013-01-15 20:03:00,28.0,21.0,-100.00,NE,45,4.0,6.0,75,0.00,,,-99.99,,2013-01-16 01:03:00,
2013-01-15 20:12:00,28.0,21.0,-100.00,NE,55,6.0,7.0,75,0.00,,,-99.99,,2013-01-16 01:12:00,
2013-01-15 20:22:00,28.0,22.0,-100.00,NE,55,6.0,7.0,76,0.00,,,-99.99,,2013-01-16 01:22:00,
2013-01-15 20:33:00,28.0,21.0,-100.00,NE,50,6.0,7.0,76,0.00,,,-99.99,,2013-01-16 01:33:00,
2013-01-15 20:42:00,28.0,22.0,-100.00,NE,50,6.0,7.0,77,0.00,,,-99.99,,2013-01-16 01:42:00,
2013-01-15 20:52:00,28.0,21.0,-100.00,ENE,60,6.0,7.0,77,0.00,,,-99.99,,2013-01-16 01:52:00,
2013-01-15 21:03:00,28.0,21.0,-100.00,ENE,70,7.0,9.0,76,0.00,,,-99.99,,2013-01-16 02:03:00,
2013-01-15 21:12:00,28.0,21.0,-100.00,NE,55,7.0,9.0,76,0.00,,,-99.99,,2013-01-16 02:12:00,
2013-01-15 21:22:00,28.0,21.0,-100.00,ENE,65,6.0,9.0,76,0.00,,,-99.99,,2013-01-16 02:22:00,
2013-01-15 21:33:00,27.0,21.0,-100.00,ENE,70,6.0,8.0,76,0.00,,,-99.99,,2013-01-16 02:33:00,
2013-01-15 21:42:00,27.0,21.0,-100.00,ENE,70,6.0,9.0,75,0.00,,,-99.99,,2013-01-16 02:42:00,
2013-01-15 21:52:00,27.0,20.0,-100.00,East,85,6.0,7.0,75,0.00,,,-99.99,,2013-01-16 02:52:00,
2013-01-15 22:03:00,27.0,20.0,-100.00,East,85,6.0,7.0,75,0.00,,,-99.99,,2013-01-16 03:03:00,
2013-01-15 22:12:00,26.0,20.0,-100.00,East,85,5.0,6.0,77,0.00,,,-99.99,,2013-01-16 03:12:00,
2013-01-15 22:22:00,26.0,21.0,-100.00,ENE,65,6.0,7.0,78,0.00,,,-99.99,,2013-01-16 03:22:00,
2013-01-15 22:33:00,27.0,21.0,-100.00,NE,55,5.0,7.0,79,0.00,,,-99.99,,2013-01-16 03:33:00,
2013-01-15 22:43:00,26.0,21.0,-100.00,NE,50,6.0,7.0,80,0.00,,,-99.99,,2013-01-16 03:43:00,
2013-01-15 22:52:00,26.0,22.0,-100.00,NE,55,6.0,6.0,82,0.00,,,-99.99,,2013-01-16 03:52:00,
2013-01-15 23:02:00,26.0,22.0,-100.00,NE,55,6.0,7.0,83,0.00,,,-99.99,,2013-01-16 04:02:00,
2013-01-15 23:12:00,26.0,22.0,-100.00,ENE,60,4.0,6.0,84,0.00,,,-99.99,,2013-01-16 04:12:00,
2013-01-15 23:22:00,25.0,22.0,-100.00,NE,55,5.0,6.0,86,0.00,,,-99.99,,2013-01-16 04:22:00,
2013-01-15 23:33:00,25.0,22.0,-100.00,NE,45,4.0,5.0,86,0.00,,,-99.99,,2013-01-16 04:33:00,
2013-01-15 23:42:00,24.0,21.0,-100.00,ENE,65,3.0,4.0,87,0.00,,,-99.99,,2013-01-16 04:42:00,
2013-01-15 23:52:00,25.0,22.0,-100.00,NE,55,4.0,4.0,88,0.00,,,-99.99,,2013-01-16 04:52:00,